Flag for Mexico Weather past 2 weeks in Playa del Carmen, Quintana Roo, Mexico

Now
75 °F

Passing clouds.


Feels Like: 74 °F
Forecast: 79 / 87 °F
Wind: 6 mph from Southeast

Location: Cozumel Civ / Mil

Current Time: Apr 20, 2015 at 10:28:25 PM

Latest Report: Apr 20, 2015 at 9:54 PM


Visibility: 7 mi

Pressure: 29.91 "Hg

Humidity: 94%

Dew point: 73 °F

Location of Playa del CarmenLocation

Historic Weather in Playa del Carmen — Graph

°F

Playa del Carmen temperature yesterday

Maximum temperature yesterday: 84 °F (at 12:43 PM)
Minimum temperature yesterday: 73 °F (at 10:41 PM)
Average temperature yesterday: 79 °F

Past Weeks' High & Low Weather Summary

 TemperatureHumidityPressure
High86 °F (Apr 10, 3:45 PM)100% (Apr 5, 11:41 PM)30.08 "Hg (Apr 5, 11:41 PM)
Low66 °F (Apr 6, 3:50 AM)58% (Apr 11, 3:42 PM)29.82 "Hg (Apr 19, 6:52 PM)
Average76 °F86%29.98 "Hg
* Reported Apr 5 6:48 PM — Apr 20 4:48 PM, Playa del Carmen, Weather by CustomWeather, © 2015

Note: Actual official high and low records may vary slightly from our data, if they occured in-between our weather recording intervals... More about our weather records

Advertising

Playa del Carmen weather history for previous 24 hours

 ConditionsComfort  
Time TempWeatherWind HumidityBarometerVisibility
4:48 PM
Mon, Apr 20
82 °FScattered clouds.9 mph74%29.83 "Hg8 mi
3:49 PM84 °FScattered clouds.14 mph70%29.85 "Hg8 mi
1:47 PM84 °FPartly sunny.12 mph70%29.86 "Hg8 mi
12:49 PM84 °FPartly sunny.10 mph70%29.86 "Hg8 mi
11:45 AM82 °FScattered clouds.13 mph70%29.89 "Hg8 mi
10:44 AM82 °FScattered clouds.13 mph70%29.89 "Hg8 mi
9:49 AM81 °FScattered clouds.13 mph74%29.93 "Hg8 mi
8:49 AM79 °FScattered clouds.14 mph79%29.87 "Hg8 mi
7:40 AM77 °FScattered clouds.14 mph83%29.86 "Hg8 mi
6:53 AM75 °FPassing clouds.12 mph89%29.84 "Hg8 mi
5:00 AM75 °FPassing clouds.12 mph89%29.83 "Hg7 mi
3:02 AM75 °FPassing clouds.10 mph89%29.83 "Hg7 mi
1:48 AM75 °FPassing clouds.13 mph89%29.84 "Hg7 mi
12:51 AM75 °FPassing clouds.12 mph89%29.87 "Hg7 mi
11:47 PM
Sun, Apr 19
75 °FPassing clouds.7 mph89%29.89 "Hg7 mi
10:41 PM73 °FPassing clouds.6 mph94%29.90 "Hg7 mi
Weather by CustomWeather, © 2015

See weather overviewHow to use our weather pages